Lapse_Rate
7.5 7.2 7.4 7.2 7.4 8.1 8.3 8.1 7.6 7.7 7.5 7.1 6.8 7.3 7.8 7.8 7.7 7.3 7.5 7.6 7.6 7.4 7.4 7.4 7.4 7.1 7.1 7.4 7.7 7.7 7.5 7.4 7.3 7.3 7.3 7.2 7.2 7.1 7.2 7.2 7.1 7.0 6.9 6.9 6.8 6.6 6.4 6.4 6.4
7.6 7.4 7.5 8.1 7.9 8.1 8.3 7.9 8.1 8.1 7.5 6.9 6.7 7.2 7.6 7.2 7.2 7.5 7.7 7.6 7.5 7.7 7.8 7.6 7.4 7.1 7.3 7.6 7.6 7.5 7.4 7.3 7.2 7.2 7.2 7.2 7.2 7.1 7.1 7.1 7.0 6.9 6.9 6.7 6.6 6.5 6.3 6.3 6.4
7.8 7.9 7.2 7.7 8.2 8.2 8.6 7.9 8.1 7.8 7.5 6.9 6.9 6.9 7.0 7.0 7.1 7.7 7.3 7.5 7.7 7.7 7.7 7.4 7.1 7.3 7.4 7.4 7.3 7.2 7.2 7.2 7.2 7.2 7.2 7.2 7.2 7.1 7.1 7.1 6.9 6.9 6.8 6.7 6.6 6.5 6.5 6.4 6.5
7.8 7.6 7.4 8.0 8.5 8.6 8.5 8.5 8.3 7.9 7.7 7.6 6.4 7.4 7.2 7.2 7.1 7.4 7.6 7.6 7.6 7.7 7.4 7.1 7.3 7.3 7.1 7.0 7.1 7.2 7.1 7.1 7.1 7.1 7.1 7.0 7.1 7.0 7.0 6.9 6.9 6.9 6.9 6.8 6.8 6.8 6.7 6.6 6.6
8.1 7.9 7.9 8.1 8.5 8.4 8.6 7.9 8.1 8.1 7.7 7.8 7.2 7.7 7.7 7.3 6.9 7.1 7.4 7.4 7.7 7.6 7.2 7.2 7.2 7.1 7.1 7.1 7.0 7.0 7.1 7.1 7.1 7.1 7.1 7.2 7.1 7.0 6.9 6.9 6.9 6.8 6.9 6.9 6.9 6.8 6.8 6.8 6.8
7.8 8.0 8.1 8.6 8.7 8.7 8.6 8.1 8.0 7.9 7.9 8.2 8.3 8.3 8.0 7.3 6.9 6.9 7.3 7.4 7.4 7.2 7.3 7.3 7.3 7.2 7.1 7.1 7.1 7.1 7.1 7.2 7.2 7.2 7.2 7.1 7.1 7.1 7.1 7.0 7.0 6.9 6.8 6.7 6.7 6.7 6.6 6.6 6.5
8.0 8.5 8.8 8.6 8.0 8.5 8.3 8.5 8.4 8.1 8.3 8.5 8.3 8.3 7.8 7.3 7.1 7.2 7.3 7.3 7.1 7.3 7.4 7.3 7.1 7.1 7.2 7.1 7.1 7.1 7.2 7.2 7.1 7.1 7.2 7.2 7.2 7.2 7.1 7.0 6.9 6.8 6.8 6.7 6.6 6.5 6.5 6.5 6.4
8.1 8.4 8.3 7.9 8.2 7.8 7.8 8.2 8.3 8.3 8.3 8.2 8.0 8.2 8.1 7.5 7.1 7.2 7.3 7.3 7.4 7.4 7.3 7.1 7.2 7.3 7.3 7.1 7.1 7.1 7.1 7.0 7.1 7.1 7.1 7.2 7.2 7.0 6.9 6.8 6.8 6.7 6.7 6.6 6.6 6.5 6.3 6.3 6.2
8.4 8.7 8.5 8.1 8.1 7.2 7.8 7.8 8.0 8.4 8.7 8.0 7.9 8.1 8.2 7.6 7.4 7.3 7.4 7.5 7.4 7.3 7.2 7.0 7.0 7.0 7.0 7.0 6.9 6.9 6.9 7.0 7.0 7.0 7.2 7.2 7.1 7.0 7.0 6.8 6.8 6.8 6.6 6.5 6.4 6.3 6.2 6.1 6.1
8.4 8.7 8.8 8.7 8.3 8.3 8.1 8.5 8.4 8.3 8.3 8.0 7.8 8.1 7.9 7.8 7.6 7.4 7.3 7.2 7.2 7.0 6.8 6.7 6.9 6.9 6.8 6.6 6.7 6.7 6.9 7.1 7.1 7.2 7.2 7.2 7.2 7.1 7.0 7.0 7.0 7.0 6.9 6.7 6.4 6.4 6.5 6.5 6.4
8.5 9.0 9.0 8.8 8.5 8.2 8.5 8.4 8.8 8.2 8.1 8.0 7.9 7.8 7.6 7.7 7.7 7.4 7.1 7.2 6.9 6.7 6.6 6.5 6.9 6.9 6.8 6.7 6.8 6.9 6.9 7.1 7.0 7.4 7.2 7.2 7.2 7.2 7.1 7.0 6.9 6.8 6.7 6.6 6.4 6.2 6.4 6.5 6.5
8.5 8.9 9.3 9.2 8.9 8.7 9.0 8.9 8.6 8.2 8.2 8.3 8.2 8.2 8.0 7.8 7.7 7.6 7.4 7.4 7.0 6.7 7.0 6.8 7.0 7.0 7.0 6.9 6.8 6.8 6.9 7.3 7.1 7.2 7.4 7.3 7.2 7.1 6.9 6.6 6.6 6.5 6.3 6.2 6.2 6.1 6.1 6.0 6.0
9.3 9.4 9.6 9.5 9.2 9.2 8.9 8.5 8.3 8.4 8.4 8.3 8.3 8.0 7.7 7.6 7.5 7.4 7.3 7.3 7.2 7.1 7.0 7.2 7.1 7.0 6.7 7.0 7.2 7.2 7.2 7.4 7.5 7.4 7.4 7.1 6.9 6.6 6.2 6.2 6.3 6.3 6.1 6.0 5.9 5.8 5.7 5.8 6.0
9.2 9.0 9.1 8.8 8.8 8.8 8.5 8.1 8.2 8.4 8.3 8.3 8.2 7.9 7.6 7.4 7.3 7.2 7.2 7.4 7.6 7.7 7.7 7.7 7.7 7.2 6.9 7.0 6.8 6.9 7.3 7.2 7.3 7.0 6.7 6.4 6.2 6.0 6.3 6.2 6.2 6.1 6.0 5.9 5.8 5.6 5.5 5.6 5.6
9.1 9.1 8.8 8.8 8.8 8.8 8.3 8.2 8.2 8.3 8.3 8.2 8.0 7.9 7.8 7.3 7.2 7.1 7.0 7.3 7.5 7.4 7.4 7.1 6.8 6.8 6.8 6.9 6.7 7.0 7.2 7.1 6.8 6.4 6.4 6.0 6.2 6.5 6.4 6.5 6.5 6.3 6.0 5.8 5.6 5.6 5.7 5.9 6.0
9.0 9.1 8.8 8.6 8.7 8.4 8.5 8.5 8.4 8.5 8.2 7.9 7.7 7.6 7.4 7.3 7.4 7.4 7.2 7.2 7.2 7.2 6.8 6.4 6.2 6.2 6.3 6.3 6.5 6.8 6.7 6.9 6.5 6.5 6.6 6.6 6.5 6.4 6.4 6.3 6.1 5.9 5.8 5.6 5.5 5.6 5.6 5.5 5.4
8.8 9.2 9.0 8.9 8.6 8.4 8.5 8.5 8.4 8.4 8.0 8.0 7.9 7.8 7.7 7.5 7.5 7.3 7.1 6.9 6.9 6.7 6.5 6.4 6.5 5.9 6.5 5.6 6.3 6.6 7.0 6.7 6.6 6.6 6.7 6.6 6.4 6.5 6.2 5.9 5.8 5.9 5.6 5.6 5.4 5.5 5.5 5.5 5.3
9.3 9.1 8.9 8.9 9.0 8.6 8.4 8.5 8.3 8.2 8.1 8.0 8.1 7.9 7.8 7.8 7.7 7.4 7.3 7.2 7.0 6.8 6.7 7.0 6.9 6.8 6.8 6.7 6.7 7.1 6.9 6.7 6.8 6.6 6.7 6.5 6.3 6.2 6.1 5.8 5.6 5.5 5.6 5.6 5.6 5.6 5.5 5.4 5.3
9.0 9.1 9.0 9.2 9.2 9.0 8.4 8.2 8.1 8.0 7.9 8.0 8.0 8.1 8.1 8.2 8.2 7.8 7.7 7.7 7.4 7.2 7.3 7.1 7.0 6.9 6.7 6.9 6.9 6.7 6.9 6.9 6.6 6.4 6.4 6.2 6.1 5.6 5.6 5.9 5.9 5.8 5.8 5.9 5.8 5.6 5.3 5.2 5.1
9.2 8.8 8.4 8.3 8.9 8.8 8.2 8.0 7.9 7.9 8.0 8.1 8.1 8.4 8.4 8.4 8.3 8.3 8.4 8.3 8.1 7.6 7.3 7.0 6.8 6.7 6.8 6.9 6.7 6.6 6.4 6.4 6.1 6.3 6.2 6.0 5.9 5.9 6.0 6.0 6.0 6.2 6.1 6.0 5.6 5.2 5.3 5.3 5.2
9.2 9.1 9.1 8.7 8.4 8.5 8.3 7.3 7.2 7.7 8.0 7.8 7.8 8.1 8.1 7.9 7.9 7.9 8.0 7.8 7.7 7.8 7.8 7.5 7.3 7.0 6.7 6.5 6.2 6.2 6.4 6.5 6.4 6.1 5.9 5.9 5.9 6.1 6.3 6.4 6.3 6.0 5.7 5.3 5.3 5.4 5.3 5.3 5.4
9.2 8.9 9.0 9.0 8.7 8.1 8.1 6.2 6.8 7.0 7.1 7.3 7.7 7.8 7.9 7.8 7.8 7.7 7.9 8.0 7.5 7.3 7.0 6.8 6.7 6.6 6.4 6.3 6.3 6.5 6.5 6.5 6.5 6.4 6.4 6.5 6.5 6.5 6.4 6.3 5.9 5.5 5.1 5.0 5.1 5.4 5.3 5.3 5.3
8.4 8.7 8.7 8.5 8.2 8.1 7.8 7.4 6.6 6.5 6.9 7.6 7.8 7.6 7.6 7.5 7.9 7.9 7.9 7.7 7.6 7.1 6.9 6.5 6.6 6.6 6.7 6.8 6.9 7.0 7.0 6.9 6.7 6.6 6.6 6.7 6.7 6.5 5.8 5.4 5.2 5.1 4.9 5.0 5.1 5.4 5.8 6.0 6.2
8.0 8.1 8.1 8.1 8.2 7.6 7.4 7.4 6.2 6.8 7.8 7.9 7.9 7.9 7.7 7.5 7.4 7.5 7.4 7.5 7.2 7.2 7.1 6.9 7.0 6.9 6.9 7.0 6.9 6.7 6.6 6.6 6.5 6.4 6.3 6.0 5.8 5.7 5.1 4.9 5.2 5.5 5.0 5.2 5.5 5.6 6.0 6.2 6.5
8.3 8.4 7.9 7.1 6.0 6.0 7.4 7.4 7.0 6.8 7.0 7.6 7.9 7.7 7.5 7.5 7.0 7.6 7.3 7.3 7.2 6.9 6.9 7.0 6.9 7.0 7.0 6.6 6.5 6.3 6.1 5.8 5.6 5.6 5.1 4.7 4.6 4.8 5.0 5.2 5.4 5.2 5.3 5.2 5.2 5.5 5.6 5.9 6.4
8.2 8.2 8.0 6.6 5.2 6.7 7.2 6.9 7.0 6.9 7.0 6.9 7.0 7.1 7.2 7.3 6.9 7.4 7.3 7.0 7.0 6.9 6.7 6.6 6.4 6.2 6.0 5.9 5.7 5.6 5.4 5.0 4.9 4.3 4.0 4.2 4.6 4.9 5.1 5.2 4.9 5.0 5.1 4.7 5.0 5.2 5.6 6.3 7.3
7.9 7.9 7.7 7.5 6.8 6.8 6.5 6.5 6.8 6.7 6.8 6.8 7.0 7.0 7.2 7.2 7.0 6.8 6.6 6.4 6.5 6.5 6.6 6.6 6.4 6.2 6.0 5.9 5.8 5.4 5.0 4.9 4.8 4.8 5.0 5.1 5.0 5.0 4.8 4.6 4.6 5.0 5.6 5.2 5.6 6.3 7.3 7.5 7.4
7.8 7.7 7.7 7.6 5.8 5.3 6.1 6.1 6.4 6.6 6.6 6.7 6.6 6.8 6.9 6.9 6.7 6.7 6.7 6.6 6.5 6.5 6.6 6.3 6.3 6.3 6.2 5.9 5.4 5.1 5.0 4.7 4.6 4.8 4.6 4.5 4.5 4.2 4.2 4.7 4.8 5.7 5.5 6.4 6.7 7.1 7.4 7.5 7.6
7.5 7.7 7.5 7.3 6.9 5.0 4.1 6.4 6.8 6.7 6.6 6.5 6.6 6.5 6.5 6.4 6.3 6.3 6.2 6.2 6.3 6.1 6.2 6.5 6.4 6.1 5.7 5.4 5.3 5.1 4.8 4.6 4.4 4.5 4.6 4.7 4.6 4.7 4.9 4.8 5.3 5.7 6.1 7.0 7.3 7.3 7.3 7.5 7.0
7.5 7.5 7.3 7.1 6.5 6.7 6.3 6.8 6.9 6.9 6.6 6.6 6.6 6.7 6.8 6.6 6.4 6.2 6.0 6.2 6.4 6.3 6.4 6.2 6.2 5.8 5.6 5.4 4.9 4.6 4.4 4.4 4.7 5.0 5.1 5.1 5.2 4.8 4.9 4.8 5.4 6.6 6.7 7.0 7.5 7.3 7.0 7.4 7.2
Wind_Speed
3 6 1 4 3 3 3 5 1 1 5 7 3 5 8 5 2 3 1 6 14 11 15 19 21 21 20 19 18 17 17 16 15 14 13 12 12 12 12 13 13 12 11 11 10 10 9 9 8
2 2 3 2 3 1 3 5 8 8 11 10 5 4 5 5 4 9 7 11 13 14 15 16 21 20 19 18 17 16 16 15 14 13 12 11 12 11 11 10 11 10 10 9 9 10 9 9 9
3 1 2 4 3 4 3 4 10 15 14 7 4 6 2 8 9 7 10 14 14 11 13 17 22 20 18 17 17 17 16 14 13 12 11 11 11 9 9 9 9 9 9 9 10 10 11 11 12
1 4 3 4 6 7 4 4 6 4 7 10 2 3 4 1 5 8 15 14 12 9 14 21 21 19 17 17 16 16 16 15 13 11 11 10 9 7 7 7 7 7 8 8 8 8 9 9 9
3 2 2 2 5 5 5 5 6 6 4 3 5 6 3 3 13 15 13 11 13 10 13 17 20 19 18 17 15 15 15 14 13 12 11 9 7 5 6 6 5 5 5 5 6 8 8 9 10
2 2 4 3 4 5 5 6 7 4 4 9 10 6 2 6 15 13 12 14 15 11 14 15 19 20 18 16 16 16 15 14 13 11 9 7 6 5 4 4 4 4 4 5 7 8 8 9 10
4 3 3 3 5 6 4 6 8 13 9 4 9 5 4 2 7 13 14 14 14 15 15 15 15 17 18 17 16 16 16 15 13 11 9 7 7 5 4 3 2 2 2 5 6 8 8 8 9
4 3 1 3 4 5 6 4 2 8 2 7 8 7 7 5 9 10 13 14 13 11 13 12 13 15 16 16 18 16 14 11 10 8 8 6 5 3 2 1 1 2 3 4 5 6 8 9 9
2 4 1 3 8 7 4 4 2 2 8 1 2 5 13 14 12 9 8 7 5 4 5 10 11 14 15 14 14 12 11 11 10 9 8 5 2 2 3 4 4 4 5 6 6 6 7 8 11
4 4 8 5 8 7 4 9 8 5 3 5 8 10 15 16 15 14 11 10 7 7 6 6 10 11 15 11 13 11 11 11 10 8 6 5 5 5 5 7 8 9 9 10 10 9 9 10 10
3 4 3 2 8 11 8 5 3 10 3 6 14 14 15 15 13 14 10 14 15 10 6 8 8 14 12 9 13 13 12 10 9 9 8 8 8 8 8 8 9 8 8 10 10 10 11 11 11
3 7 2 5 6 6 9 6 5 2 8 9 21 21 16 13 14 14 13 12 9 10 12 10 10 11 13 11 11 13 11 13 11 11 9 7 5 4 4 3 3 5 6 8 8 9 10 10 12
4 3 1 6 8 6 6 4 6 3 7 10 15 16 18 16 13 11 14 11 10 13 12 12 10 9 11 9 9 10 9 10 12 10 11 10 6 2 1 1 4 5 5 7 8 6 9 10 11
6 1 4 4 6 5 6 2 1 4 7 10 16 16 15 16 15 7 7 8 10 13 12 9 12 10 10 5 9 9 12 12 12 8 2 1 1 2 3 3 3 2 3 2 2 2 3 5 6
8 5 4 2 1 3 5 2 4 5 9 15 15 16 11 10 8 11 8 7 9 7 7 8 6 7 6 7 9 8 11 10 5 5 3 2 5 7 4 2 2 5 7 7 5 3 3 3 5
5 5 3 4 3 2 5 7 3 9 12 11 6 3 6 6 6 6 2 6 6 5 8 6 9 7 13 10 8 7 5 8 10 13 12 11 8 5 5 6 6 10 8 6 5 2 3 3 3
6 3 2 3 6 2 3 3 7 6 5 7 6 7 6 7 9 7 6 3 3 2 8 10 9 7 7 7 11 8 10 14 13 12 11 10 9 9 10 9 11 13 9 8 4 3 3 3 4
3 3 3 6 5 5 1 5 8 6 10 8 8 8 9 9 7 7 10 8 9 9 11 11 7 6 4 6 7 6 8 13 15 13 15 15 14 14 13 11 12 14 5 5 5 4 3 1 2
2 3 6 4 3 9 5 9 10 8 13 11 9 10 11 12 5 9 11 6 12 10 11 8 8 4 4 3 3 3 3 3 2 12 15 15 15 15 15 12 11 11 5 4 4 3 4 3 4
5 4 2 8 10 12 13 13 8 8 5 6 10 10 12 9 11 9 9 11 9 10 11 10 7 5 5 4 2 2 1 0 3 7 10 13 14 16 12 11 6 8 4 6 6 5 3 2 4
4 1 3 8 10 8 14 9 7 6 7 8 7 5 7 10 9 6 7 8 8 8 8 8 7 6 5 5 2 3 2 2 2 2 3 10 14 16 14 12 10 8 6 4 4 6 7 4 3
3 2 4 10 6 5 4 3 1 3 4 4 4 6 7 7 7 5 6 7 7 5 4 5 4 5 3 4 3 2 2 1 2 3 3 7 12 11 11 11 12 9 7 5 4 5 4 4 4
3 2 2 4 4 5 4 5 3 5 3 4 5 5 6 5 8 8 8 7 4 3 3 2 3 2 2 2 3 2 2 3 3 3 5 5 8 12 10 9 9 8 6 5 5 5 5 3 2
3 4 6 4 3 3 2 5 5 8 7 5 3 4 5 7 6 6 6 5 6 5 5 4 3 3 3 4 4 4 5 5 4 2 3 2 1 3 2 6 8 11 7 4 4 3 4 3 2
5 5 3 3 3 4 2 2 6 13 10 8 11 8 8 8 6 6 7 7 7 7 6 4 6 7 7 7 7 7 7 7 5 4 4 5 3 1 4 5 4 5 5 4 3 2 2 2 1
3 4 5 5 3 2 4 0 3 5 9 11 7 10 5 4 7 8 8 7 7 7 6 7 7 7 6 7 6 5 6 4 4 5 4 5 3 3 6 5 5 4 4 3 1 1 0 1 2
1 4 3 6 3 3 3 3 5 5 6 8 10 6 6 7 7 10 9 7 6 6 7 7 7 6 6 6 5 5 5 5 5 7 6 4 0 2 4 2 5 1 9 3 1 1 2 2 3
5 4 4 4 3 1 2 3 4 8 10 5 5 9 8 8 8 8 6 4 4 6 6 8 7 7 7 7 6 6 6 6 7 6 6 3 3 5 6 5 5 6 4 5 1 2 3 4 2
4 2 6 5 3 4 2 5 5 10 8 7 8 10 10 8 7 7 5 5 6 6 7 7 8 8 7 6 6 7 8 9 8 6 6 6 2 1 0 2 4 4 5 3 2 4 6 3 2
1 3 4 4 3 1 4 5 4 7 9 12 11 9 7 6 6 6 5 6 6 6 6 6 6 6 4 3 4 5 6 7 7 9 4 4 4 5 4 3 6 6 4 4 4 4 2 2 2
Wind_Direction
233 254 311 61 59 55 243 290 202 22 64 69 24 94 103 15 53 146 175 133 131 136 140 134 133 133 135 131 127 129 122 119 113 106 104 98 88 83 77 75 77 77 75 72 70 68 63 57 47
154 235 16 78 97 248 268 182 122 130 134 95 79 52 42 67 80 116 115 138 130 132 136 133 131 132 133 135 133 127 123 122 121 116 109 96 91 88 84 82 77 73 66 63 57 51 48 39 37
203 164 89 116 130 193 236 177 143 147 150 91 69 21 86 143 102 149 137 137 134 121 130 132 128 133 135 131 133 130 124 123 122 117 109 104 104 102 95 86 76 65 55 47 42 34 23 17 17
138 5 22 116 223 247 237 163 180 158 44 82 131 143 54 330 147 153 140 139 123 110 123 132 130 127 128 128 125 130 135 132 121 116 114 115 110 105 96 88 77 65 52 39 31 27 18 10 12
40 73 116 103 263 238 202 125 125 109 110 149 129 126 71 23 111 123 132 134 126 117 120 124 131 130 132 137 141 140 140 134 134 134 134 131 121 121 108 98 81 67 51 30 21 19 10 2 3
19 113 55 276 257 13 75 89 126 103 86 104 95 97 46 139 127 134 129 133 138 133 126 130 142 144 145 145 147 150 147 148 148 147 138 140 141 145 125 96 78 59 32 9 11 14 10 6 4
158 94 204 263 116 19 64 97 123 123 142 142 137 101 130 170 134 129 133 138 141 144 145 146 153 155 156 156 157 162 160 157 154 154 159 164 165 161 144 123 78 44 17 359 3 11 7 3 356
117 87 73 262 110 55 340 109 139 135 161 119 152 152 171 191 134 129 136 142 148 153 156 153 153 156 160 165 172 169 159 156 157 164 177 176 175 184 181 213 332 328 328 342 333 351 346 341 338
101 58 202 224 119 141 201 140 121 46 128 351 352 118 146 139 126 123 133 134 135 151 158 158 159 170 168 175 176 166 164 168 173 178 189 192 195 236 264 268 288 282 288 278 283 299 307 314 316
111 130 217 202 142 174 167 135 133 100 128 34 72 68 132 143 146 149 158 159 168 178 185 184 174 175 174 172 178 176 174 179 180 183 190 219 248 257 262 273 276 279 272 274 274 276 279 285 293
180 221 185 248 159 154 168 166 83 125 349 171 145 144 155 152 160 158 166 172 183 176 177 193 187 184 176 174 174 176 179 188 198 191 199 221 237 259 274 267 284 283 276 286 288 283 283 284 287
186 265 264 169 136 128 157 135 119 134 195 175 154 158 158 166 172 170 176 179 175 173 192 186 191 183 189 182 183 179 176 188 199 201 207 208 214 221 247 255 312 336 333 314 310 301 300 294 292
185 196 45 114 106 116 105 125 178 230 161 150 141 156 168 176 183 182 184 179 180 184 191 191 188 189 191 182 176 180 196 191 207 210 207 196 202 186 217 333 31 15 13 8 348 333 321 318 318
176 185 119 76 126 140 122 124 101 56 121 138 154 174 177 183 188 175 179 188 187 192 193 179 191 187 193 171 191 192 196 208 210 214 272 170 285 108 62 40 24 351 342 317 260 252 304 319 335
129 79 28 22 110 115 118 48 167 134 147 156 176 184 187 200 194 195 188 182 184 199 190 190 181 171 166 183 184 179 191 194 150 104 62 84 79 93 113 185 295 338 341 343 9 50 75 35 11
74 55 104 285 115 34 94 249 230 147 145 184 169 34 52 43 50 41 81 209 192 168 188 93 76 55 22 339 48 65 49 75 98 91 88 87 87 46 19 1 338 337 342 4 357 12 25 37 34
10 153 164 300 193 69 119 265 0 68 115 85 79 69 85 64 35 22 26 78 114 40 74 71 85 106 81 290 96 79 87 86 86 72 69 63 56 32 11 356 352 3 12 27 4 354 24 6 360
211 167 184 201 188 54 25 20 6 40 99 108 90 77 78 70 25 29 47 46 72 69 76 82 79 79 68 69 53 69 64 49 60 61 41 32 32 41 47 38 26 23 28 19 12 5 349 311 323
185 162 219 250 110 73 44 49 20 20 93 100 87 84 77 68 34 55 59 49 73 65 72 58 75 50 116 44 22 19 19 12 28 41 47 55 61 57 59 52 40 33 44 22 9 343 346 329 352
67 115 65 61 82 88 75 46 38 29 45 86 103 93 92 86 64 61 72 71 66 84 97 87 92 88 79 100 100 145 177 153 73 60 56 54 53 49 52 52 42 38 32 20 19 22 336 321 20
38 81 88 109 83 85 88 39 7 15 37 62 53 86 82 108 101 78 70 72 70 64 78 103 123 126 126 124 83 54 61 71 30 36 30 22 42 42 47 51 50 42 47 40 27 18 23 333 337
51 329 80 120 101 169 78 137 341 25 46 47 85 113 128 143 127 127 109 84 97 115 117 104 102 96 94 102 96 130 170 186 26 34 20 18 40 44 49 62 73 74 63 55 55 53 50 30 26
189 61 83 111 110 101 25 92 236 138 162 175 205 177 155 196 129 129 123 137 130 107 106 108 93 83 107 83 84 92 66 49 57 46 28 6 31 40 60 88 90 72 81 83 76 60 52 60 67
137 89 40 53 89 58 235 124 209 191 192 183 229 223 198 157 171 138 118 107 61 34 36 32 44 39 6 45 42 59 81 99 84 47 31 23 290 212 129 93 103 115 110 94 79 55 41 39 29
73 78 22 14 14 197 297 93 219 203 168 185 184 194 207 195 154 107 70 56 52 39 28 48 52 44 50 71 64 80 99 116 152 194 210 241 266 195 176 147 140 125 107 89 81 67 46 36 38
56 135 149 181 175 218 9 349 267 160 159 184 189 189 170 75 79 80 80 81 66 61 58 66 72 75 69 79 96 132 162 194 227 250 301 268 243 212 155 183 135 84 159 142 143 113 213 327 332
133 48 153 107 354 73 275 16 3 76 141 175 186 110 108 105 96 89 75 68 60 57 51 59 72 71 47 26 1 332 298 291 309 311 306 301 135 129 172 226 39 166 255 181 180 254 285 266 270
111 148 50 10 121 239 282 220 220 199 201 199 102 122 102 98 103 97 100 110 69 49 52 45 50 48 18 4 354 341 338 328 303 295 286 241 221 179 155 174 242 274 325 305 260 292 268 247 263
5 40 63 106 105 155 172 258 217 200 185 163 122 128 128 122 119 115 114 81 68 62 55 60 59 54 35 21 7 13 352 339 329 302 261 230 221 99 128 2 355 292 259 266 289 263 260 278 332
162 128 110 108 219 53 145 275 338 157 143 137 132 128 118 117 119 121 120 99 84 77 71 72 70 63 34 19 17 359 318 321 320 320 336 34 22 31 37 312 281 259 252 258 272 298 12 11 349